FW5790 Weather Reports


Display with metric or nautical units.
time (UTC)temp
F
wind
direction
speed
MPH
gust
MPH
rain 1hr
in
rain 24hr
in
rain mn
in
humidity
%
barometer
mb
20260508094549 41 0 0.0 0.0 0.00 0.00 0.00 86 1016.1
20260508093053 41 0 0.0 0.0 0.00 0.00 0.00 86 1016.1
20260508091556 41 0 0.0 0.0 0.00 0.00 0.00 86 1016.2
20260508090058 42 0 0.0 0.0 0.00 0.00 0.00 86 1016.1
20260508084543 41 0 0.0 0.0 0.00 0.00 0.00 86 1016.0
20260508083044 41 0 0.0 0.0 0.00 0.00 0.00 86 1016.0
20260508081553 42 0 0.0 0.0 0.00 0.00 0.00 86 1015.9
20260508080050 42 0 0.0 0.0 0.00 0.00 0.00 85 1016.0
20260508074544 42 0 0.0 0.0 0.00 0.00 0.00 86 1015.8
20260508073103 42 0 0.0 0.0 0.00 0.00 0.00 85 1015.9
20260508071555 42 0 0.0 0.0 0.00 0.00 0.00 85 1016.0
20260508070052 42 0 0.0 0.0 0.00 0.00 0.00 85 1016.1
20260508064548 43 0 0.0 0.0 0.00 0.00 0.00 84 1016.1
20260508063046 43 0 0.0 0.0 0.00 0.00 0.00 84 1016.4
20260508061546 44 0 0.0 0.0 0.00 0.00 0.00 83 1016.4
20260508060051 44 0 0.0 0.0 0.00 0.00 0.00 82 1016.6
20260508054605 44 0 0.0 0.0 0.00 0.00 0.00 82 1016.6
20260508053051 44 0 0.0 0.0 0.00 0.00 0.00 82 1016.7
20260508051545 44 0 0.0 0.0 0.00 0.00 0.00 83 1016.8
20260508050046 44 0 0.0 0.0 0.00 0.00 0.00 82 1016.7
20260508044556 44 0 0.0 0.0 0.00 0.00 0.00 82 1016.7
20260508043049 45 0 0.0 0.0 0.00 0.00 0.00 80 1016.6
20260508041547 45 0 0.0 0.0 0.00 0.00 0.00 80 1016.7
20260508040050 45 0 0.0 0.0 0.00 0.00 0.00 78 1016.6
20260508034544 46 0 0.0 0.0 0.00 0.00 0.00 77 1016.5
20260508033106 46 0 0.0 0.0 0.00 0.00 0.00 77 1016.7
20260508031541 46 0 0.0 0.0 0.00 0.00 0.00 80 1016.8
20260508030100 47 0 0.0 0.0 0.00 0.00 0.00 80 1016.7
20260508024608 47 0 0.0 0.0 0.00 0.00 0.00 80 1016.6
20260508023045 47 0 0.0 0.0 0.00 0.00 0.00 78 1016.3
20260508021544 48 0 0.0 0.0 0.00 0.00 0.00 76 1016.2
20260508014551 49 0 0.0 0.0 0.00 0.00 0.00 73 1016.0
20260508013056 50 0 0.0 0.0 0.00 0.00 0.00 69 1015.9
20260508011545 51 0 0.0 0.0 0.00 0.00 0.00 67 1015.7
20260508010043 52 0 0.0 0.0 0.00 0.00 0.00 63 1015.5
20260508004547 53 0 0.0 0.0 0.00 0.00 0.00 60 1015.5
20260508003045 54 0 0.0 0.0 0.00 0.00 0.00 55 1015.4
20260508001551 55 0 0.0 0.0 0.00 0.00 0.00 63 1015.3
20260508000042 56 0 0.0 0.0 0.00 0.00 0.00 55 1015.2
20260507234547 57 0 0.0 0.0 0.00 0.00 0.00 51 1015.2
20260507233049 57 0 0.0 1.0 0.00 0.00 0.00 53 1015.2
20260507231546 57 312 0.0 1.0 0.00 0.00 0.00 48 1015.4
20260507230046 58 0 0.0 1.0 0.00 0.00 0.00 47 1015.4
20260507224543 59 0 0.0 1.0 0.00 0.00 0.00 45 1015.4
20260507223041 59 0 0.0 2.0 0.00 0.00 0.00 46 1015.5
20260507221545 59 0 0.0 1.0 0.00 0.00 0.00 54 1015.5
20260507220045 59 0 0.0 3.0 0.00 0.00 0.00 49 1015.5
20260507214549 60 0 0.0 1.0 0.00 0.00 0.00 43 1015.5
20260507213055 60 198 0.0 4.0 0.00 0.00 0.00 43 1015.5
20260507211552 60 115 1.0 3.0 0.00 0.00 0.00 47 1015.7
20260507210047 60 190 2.0 4.0 0.00 0.00 0.00 44 1015.5
20260507204545 60 205 0.0 2.0 0.00 0.00 0.00 44 1015.5
20260507203046 60 142 2.0 5.0 0.00 0.00 0.00 46 1015.6
20260507201550 60 221 1.0 4.0 0.00 0.00 0.00 46 1015.5
20260507200047 61 100 1.0 3.0 0.00 0.00 0.00 46 1015.6
20260507194544 61 164 1.0 5.0 0.00 0.00 0.00 48 1015.6
20260507193052 61 0 0.0 4.0 0.00 0.00 0.00 44 1015.7
20260507191547 61 86 1.0 4.0 0.00 0.00 0.00 43 1015.8
20260507190052 61 321 1.0 4.0 0.00 0.00 0.00 46 1015.8
20260507184546 61 110 1.0 5.0 0.00 0.00 0.00 46 1015.8
20260507183052 61 109 2.0 4.0 0.00 0.00 0.00 44 1016.0
20260507181542 62 147 1.0 3.0 0.00 0.00 0.00 46 1016.0
20260507180053 61 0 0.0 4.0 0.00 0.00 0.00 52 1016.1
20260507174549 62 156 1.0 3.0 0.00 0.00 0.00 47 1016.3
20260507173058 60 176 1.0 4.0 0.00 0.00 0.00 48 1016.5
20260507171549 60 136 1.0 5.0 0.00 0.00 0.00 48 1016.7
20260507170050 59 233 1.0 4.0 0.00 0.00 0.00 45 1016.8
20260507164548 59 85 2.0 4.0 0.00 0.00 0.00 50 1016.9
20260507163048 59 103 2.0 3.0 0.00 0.00 0.00 48 1017.2
20260507161552 59 106 1.0 3.0 0.00 0.00 0.00 48 1017.2
20260507160047 59 97 1.0 2.0 0.00 0.00 0.00 46 1017.1
20260507154552 58 143 1.0 4.0 0.00 0.00 0.00 49 1017.3
20260507153101 57 77 1.0 4.0 0.00 0.00 0.00 50 1017.3
20260507151542 57 90 1.0 3.0 0.00 0.00 0.00 53 1017.1
20260507150050 55 221 1.0 5.0 0.00 0.00 0.00 51 1017.0
20260507144544 54 200 2.0 5.0 0.00 0.00 0.00 52 1017.1
20260507143056 55 159 0.0 3.0 0.00 0.00 0.00 63 1017.2
20260507141549 53 183 1.0 3.0 0.00 0.00 0.00 60 1017.1
20260507140051 52 206 0.0 2.0 0.00 0.00 0.00 62 1017.2
20260507134547 51 195 2.0 3.0 0.00 0.00 0.00 60 1017.2
20260507133048 50 198 1.0 4.0 0.00 0.00 0.00 64 1017.2
20260507131548 49 157 0.0 4.0 0.00 0.00 0.00 68 1017.2
20260507130058 48 207 0.0 3.0 0.00 0.00 0.00 76 1017.1
20260507124540 47 0 0.0 0.0 0.00 0.00 0.00 81 1016.9
20260507123047 46 158 0.0 1.0 0.00 0.00 0.00 82 1017.0
20260507121549 44 0 0.0 1.0 0.00 0.00 0.00 86 1017.1
20260507120043 42 0 0.0 0.0 0.00 0.00 0.00 88 1017.2
20260507114544 41 0 0.0 0.0 0.00 0.00 0.00 89 1017.2
20260507113049 41 0 0.0 0.0 0.00 0.00 0.00 88 1017.2
20260507111546 41 0 0.0 0.0 0.00 0.00 0.00 88 1017.0
20260507110057 41 0 0.0 0.0 0.00 0.00 0.00 88 1016.9
20260507104550 41 0 0.0 0.0 0.00 0.00 0.00 89 1016.7
20260507103106 41 0 0.0 0.0 0.00 0.00 0.00 89 1016.5
20260507101547 41 0 0.0 0.0 0.00 0.00 0.00 89 1016.4